GW5795 Weather Reports


Display with metric or nautical units.
time (UTC)temp
F
wind
direction
speed
MPH
gust
MPH
rain 1hr
in
rain 24hr
in
rain mn
in
humidity
%
barometer
mb
20260507033045 44 187 0.0 0.0 0.00 0.00 0.00 48 1016.8
20260507032542 44 187 0.0 0.0 0.00 0.00 0.00 50 1016.8
20260507032038 44 187 0.0 0.0 0.00 0.00 0.00 50 1016.8
20260507031534 44 187 0.0 0.0 0.00 0.00 0.00 49 1017.0
20260507031031 45 187 0.0 0.0 0.00 0.00 0.00 49 1017.1
20260507030528 45 187 0.0 0.0 0.00 0.00 0.00 49 1016.8
20260507030026 45 187 0.0 0.0 0.00 0.00 0.00 45 1017.1
20260507025522 45 186 0.0 0.0 0.00 0.00 0.00 46 1017.0
20260507025020 45 186 0.0 0.0 0.00 0.00 0.00 46 1017.0
20260507024518 45 186 0.0 0.0 0.00 0.00 0.00 45 1017.0
20260507024014 45 186 0.0 0.0 0.00 0.00 0.00 44 1016.9
20260507023510 46 187 0.0 0.0 0.00 0.00 0.00 44 1016.8
20260507023008 46 187 0.0 0.0 0.00 0.00 0.00 43 1017.1
20260507022504 48 187 0.0 0.0 0.00 0.00 0.00 41 1017.0
20260507022000 48 187 0.0 0.0 0.00 0.00 0.00 42 1016.9
20260507021455 49 187 0.0 0.0 0.00 0.00 0.00 41 1017.1
20260507020953 49 187 0.0 0.0 0.00 0.00 0.00 39 1016.8
20260507020450 50 187 0.0 0.0 0.00 0.00 0.00 37 1016.9
20260507015947 49 190 0.0 0.0 0.00 0.00 0.00 36 1016.8
20260507015445 50 188 0.0 0.0 0.00 0.00 0.00 36 1016.9
20260507014941 50 187 0.0 0.0 0.00 0.00 0.00 34 1016.8
20260507014438 51 188 0.0 0.0 0.00 0.00 0.00 34 1016.9
20260507013934 51 187 0.0 0.0 0.00 0.00 0.00 33 1016.8
20260507013431 52 188 0.0 0.0 0.00 0.00 0.00 34 1016.8
20260507012929 52 193 0.0 1.0 0.00 0.00 0.00 33 1016.6
20260507012426 52 190 1.0 2.0 0.00 0.00 0.00 33 1016.8
20260507011922 53 189 0.0 1.0 0.00 0.00 0.00 34 1016.8
20260507011420 53 189 0.0 1.0 0.00 0.00 0.00 33 1016.6
20260507010919 54 205 0.0 4.0 0.00 0.00 0.00 32 1016.8
20260507010415 55 183 1.0 4.0 0.00 0.00 0.00 32 1016.8
20260507005912 56 225 1.0 3.0 0.00 0.00 0.00 31 1017.1
20260507005409 57 304 1.0 3.0 0.00 0.00 0.00 30 1016.9
20260507004905 57 195 1.0 4.0 0.00 0.00 0.00 31 1016.9
20260507004402 56 196 1.0 3.0 0.00 0.00 0.00 29 1016.8
20260507003900 56 186 1.0 2.0 0.00 0.00 0.00 30 1017.1
20260507003355 56 191 1.0 2.0 0.00 0.00 0.00 31 1017.0
20260507002850 56 208 2.0 3.0 0.00 0.00 0.00 30 1017.2
20260507002347 58 293 3.0 6.0 0.00 0.00 0.00 28 1017.1
20260507001844 58 216 1.0 4.0 0.00 0.00 0.00 28 1017.0
20260507001341 58 181 0.0 1.0 0.00 0.00 0.00 29 1017.0
20260507000837 59 242 3.0 4.0 0.00 0.00 0.00 27 1017.1
20260507000333 58 193 1.0 3.0 0.00 0.00 0.00 28 1017.1
20260506235829 58 201 2.0 4.0 0.00 0.00 0.00 28 1017.2
20260506235326 59 334 6.0 8.0 0.00 0.00 0.00 28 1017.3
20260506234822 60 316 3.0 7.0 0.00 0.00 0.00 28 1017.4
20260506234320 60 187 3.0 8.0 0.00 0.00 0.00 27 1017.2
20260506233818 59 246 3.0 4.0 0.00 0.00 0.00 29 1017.2
20260506233313 59 257 2.0 3.0 0.00 0.00 0.00 29 1017.3
20260506232810 60 211 3.0 6.0 0.00 0.00 0.00 27 1017.4
20260506232306 59 226 3.0 7.0 0.00 0.00 0.00 29 1017.6
20260506231803 58 251 3.0 7.0 0.00 0.00 0.00 28 1017.6
20260506231301 59 319 4.0 6.0 0.00 0.00 0.00 27 1017.7
20260506230758 60 188 10.0 14.0 0.00 0.00 0.00 27 1017.5
20260506230255 59 184 1.0 3.0 0.00 0.00 0.00 31 1017.5
20260506225751 58 163 2.0 4.0 0.00 0.00 0.00 31 1017.5
20260506225248 58 199 2.0 4.0 0.00 0.00 0.00 30 1017.7
20260506224744 57 160 2.0 2.0 0.00 0.00 0.00 31 1017.7
20260506224242 56 197 2.0 6.0 0.00 0.00 0.00 32 1017.8
20260506223738 57 316 4.0 10.0 0.00 0.00 0.00 29 1017.8
20260506223233 59 344 3.0 8.0 0.00 0.00 0.00 29 1017.9
20260506222731 59 304 9.0 11.0 0.00 0.00 0.00 28 1017.8
20260506222226 60 123 9.0 14.0 0.00 0.00 0.00 26 1017.8
20260506221725 60 291 2.0 6.0 0.00 0.00 0.00 31 1017.9
20260506221223 57 207 2.0 4.0 0.00 0.00 0.00 30 1018.0
20260506220720 57 285 3.0 7.0 0.00 0.00 0.00 30 1017.9
20260506220220 58 343 4.0 8.0 0.00 0.00 0.00 28 1018.1
20260506215717 58 243 2.0 6.0 0.00 0.00 0.00 28 1018.0
20260506215212 59 259 3.0 8.0 0.00 0.00 0.00 28 1018.0
20260506214709 60 174 4.0 8.0 0.00 0.00 0.00 25 1018.0
20260506214207 61 261 2.0 9.0 0.00 0.00 0.00 27 1018.4
20260506213705 61 214 1.0 7.0 0.00 0.00 0.00 30 1018.3
20260506213202 61 187 3.0 8.0 0.00 0.00 0.00 29 1018.4
20260506212659 62 340 7.0 9.0 0.00 0.00 0.00 26 1018.4
20260506212154 61 203 2.0 6.0 0.00 0.00 0.00 31 1018.3
20260506211650 60 233 4.0 8.0 0.00 0.00 0.00 28 1018.5
20260506211146 61 341 6.0 11.0 0.00 0.00 0.00 27 1018.4
20260506210643 59 191 1.0 4.0 0.00 0.00 0.00 34 1018.6
20260506210140 57 197 2.0 3.0 0.00 0.00 0.00 30 1018.7
20260506205637 57 289 4.0 6.0 0.00 0.00 0.00 29 1018.9
20260506205132 58 345 2.0 6.0 0.00 0.00 0.00 30 1018.9
20260506204630 59 263 5.0 8.0 0.00 0.00 0.00 29 1019.0
20260506204127 58 179 4.0 6.0 0.00 0.00 0.00 30 1019.2
20260506203625 60 212 6.0 9.0 0.00 0.00 0.00 28 1019.1
20260506203121 57 219 4.0 9.0 0.00 0.00 0.00 31 1019.2
20260506202619 58 280 5.0 8.0 0.00 0.00 0.00 29 1019.1
20260506202115 59 254 4.0 15.0 0.00 0.00 0.00 29 1019.2
20260506201613 58 242 2.0 8.0 0.00 0.00 0.00 37 1019.2
20260506201109 58 336 5.0 9.0 0.00 0.00 0.00 30 1019.3
20260506200605 58 228 3.0 6.0 0.00 0.00 0.00 31 1019.3
20260506195559 60 220 3.0 9.0 0.00 0.00 0.00 31 1019.4
20260506195055 58 214 3.0 8.0 0.00 0.00 0.00 37 1019.7
20260506194553 59 269 5.0 9.0 0.00 0.00 0.00 29 1019.6
20260506194049 58 344 5.0 8.0 0.00 0.00 0.00 31 1019.6
20260506193547 57 272 4.0 10.0 0.00 0.00 0.00 34 1019.7
20260506193044 56 347 3.0 7.0 0.00 0.00 0.00 32 1019.6
20260506192541 59 240 3.0 6.0 0.00 0.00 0.00 27 1019.7
20260506192036 59 285 5.0 11.0 0.00 0.00 0.00 33 1019.7
20260506191534 58 328 8.0 13.0 0.00 0.00 0.00 30 1019.8
20260506191029 58 349 6.0 8.0 0.00 0.00 0.00 30 1019.8
20260506190527 58 333 4.0 14.0 0.00 0.00 0.00 34 1019.9
20260506190024 58 331 5.0 9.0 0.00 0.00 0.00 33 1019.8
20260506185521 57 259 7.0 10.0 0.00 0.00 0.00 32 1020.0
20260506185017 56 188 1.0 10.0 0.00 0.00 0.00 36 1019.9
20260506184515 56 324 6.0 11.0 0.00 0.00 0.00 32 1019.9
20260506184012 56 195 4.0 11.0 0.00 0.00 0.00 32 1020.3
20260506183508 56 331 7.0 10.0 0.00 0.00 0.00 32 1020.1
20260506183005 58 194 4.0 7.0 0.00 0.00 0.00 35 1020.2
20260506182502 57 34 7.0 11.0 0.00 0.00 0.00 36 1020.3
20260506181959 56 201 2.0 7.0 0.00 0.00 0.00 30 1020.5
20260506181457 56 203 4.0 9.0 0.00 0.00 0.00 34 1020.5
20260506180953 56 188 2.0 9.0 0.00 0.00 0.00 34 1020.7
20260506180450 56 140 3.0 9.0 0.00 0.00 0.00 34 1020.7
20260506175946 56 202 5.0 11.0 0.00 0.00 0.00 35 1020.7
20260506175443 56 274 4.0 9.0 0.00 0.00 0.00 33 1020.8
20260506174940 56 211 7.0 10.0 0.00 0.00 0.00 35 1020.7
20260506174438 57 11 10.0 13.0 0.00 0.00 0.00 33 1020.7
20260506173934 56 353 8.0 14.0 0.00 0.00 0.00 35 1020.8
20260506173431 56 150 3.0 10.0 0.00 0.00 0.00 36 1020.8
20260506172928 56 339 5.0 8.0 0.00 0.00 0.00 39 1020.9
20260506172426 55 317 2.0 8.0 0.00 0.00 0.00 40 1020.9
20260506171922 54 333 6.0 14.0 0.00 0.00 0.00 35 1020.8
20260506171420 54 177 5.0 11.0 0.00 0.00 0.00 35 1021.0
20260506170918 53 212 4.0 10.0 0.00 0.00 0.00 35 1021.1
20260506170414 55 356 4.0 11.0 0.00 0.00 0.00 33 1021.1
20260506165913 55 232 3.0 7.0 0.00 0.00 0.00 37 1021.1
20260506165410 54 193 3.0 8.0 0.00 0.00 0.00 37 1021.1
20260506164906 53 300 6.0 10.0 0.00 0.00 0.00 34 1021.1
20260506164403 52 315 6.0 11.0 0.00 0.00 0.00 35 1021.3
20260506163901 52 340 4.0 7.0 0.00 0.00 0.00 37 1021.3
20260506163355 52 149 5.0 7.0 0.00 0.00 0.00 38 1021.2
20260506162850 52 342 10.0 15.0 0.00 0.00 0.00 35 1021.2
20260506162349 52 349 4.0 6.0 0.00 0.00 0.00 35 1021.4
20260506161846 51 347 6.0 10.0 0.00 0.00 0.00 35 1021.3
20260506161343 51 280 6.0 13.0 0.00 0.00 0.00 36 1021.3
20260506160841 51 205 2.0 11.0 0.00 0.00 0.00 37 1021.3
20260506160337 51 323 2.0 6.0 0.00 0.00 0.00 40 1021.2
20260506155836 51 248 3.0 10.0 0.00 0.00 0.00 38 1020.9
20260506155332 52 192 2.0 8.0 0.00 0.00 0.00 42 1021.0
20260506153444 52 339 4.0 8.0 0.00 0.00 0.00 39 1021.1
20260506152942 51 326 8.0 11.0 0.00 0.00 0.00 36 1021.2
20260506152438 51 318 4.0 13.0 0.00 0.00 0.00 38 1021.0
20260506151937 51 313 7.0 11.0 0.00 0.00 0.00 40 1020.9
20260506151434 51 314 4.0 15.0 0.00 0.00 0.00 38 1021.1
20260506150932 51 282 4.0 9.0 0.00 0.00 0.00 45 1021.1
20260506150427 51 261 3.0 6.0 0.00 0.00 0.00 44 1021.3
20260506145925 51 292 4.0 8.0 0.00 0.00 0.00 45 1021.3
20260506145421 51 299 3.0 9.0 0.00 0.00 0.00 41 1021.3
20260506144918 50 168 9.0 11.0 0.00 0.00 0.00 39 1021.2
20260506144415 51 353 6.0 8.0 0.00 0.00 0.00 39 1021.3
20260506143914 51 300 3.0 8.0 0.00 0.00 0.00 43 1021.4
20260506143410 50 187 1.0 6.0 0.00 0.00 0.00 41 1021.3
20260506142908 50 337 4.0 6.0 0.00 0.00 0.00 42 1021.1
20260506142406 49 263 2.0 7.0 0.00 0.00 0.00 42 1021.2
20260506141904 48 346 4.0 8.0 0.00 0.00 0.00 44 1021.3
20260506141401 48 56 4.0 8.0 0.00 0.00 0.00 42 1021.2
20260506140859 48 333 2.0 4.0 0.00 0.00 0.00 46 1021.1
20260506140356 48 168 4.0 7.0 0.00 0.00 0.00 45 1021.3
20260506135853 47 286 3.0 6.0 0.00 0.00 0.00 47 1021.3
20260506135350 47 299 3.0 6.0 0.00 0.00 0.00 47 1021.2
20260506134846 45 313 3.0 4.0 0.00 0.00 0.00 52 1021.2
20260506134343 44 183 1.0 2.0 0.00 0.00 0.00 55 1021.2
20260506133840 44 331 4.0 4.0 0.00 0.00 0.00 55 1021.1
20260506133336 43 175 0.0 2.0 0.00 0.00 0.00 55 1021.2
20260506132833 42 328 4.0 4.0 0.00 0.00 0.00 57 1021.1
20260506132330 41 187 3.0 4.0 0.00 0.00 0.00 61 1021.2
20260506131828 40 198 3.0 4.0 0.00 0.00 0.00 61 1021.2
20260506131324 39 207 2.0 3.0 0.00 0.00 0.00 63 1021.2
20260506130822 39 240 3.0 3.0 0.00 0.00 0.00 64 1021.1
20260506130318 38 184 0.0 1.0 0.00 0.00 0.00 66 1021.0
20260506125816 37 174 0.0 1.0 0.00 0.00 0.00 67 1021.1
20260506125314 36 171 0.0 0.0 0.00 0.00 0.00 68 1021.0
20260506124812 35 148 1.0 2.0 0.00 0.00 0.00 69 1021.0
20260506124309 34 192 1.0 2.0 0.00 0.00 0.00 70 1020.7
20260506123806 33 159 2.0 2.0 0.00 0.00 0.00 71 1020.8
20260506123305 33 160 1.0 3.0 0.00 0.00 0.00 72 1020.8
20260506122801 32 239 2.0 3.0 0.00 0.00 0.00 73 1020.7
20260506122258 32 304 3.0 3.0 0.00 0.00 0.00 74 1020.6
20260506121757 32 237 2.0 3.0 0.00 0.00 0.00 72 1020.3
20260506121253 32 190 1.0 1.0 0.00 0.00 0.00 72 1020.3
20260506120751 31 179 0.0 0.0 0.00 0.00 0.00 73 1020.3
20260506120248 31 187 0.0 0.0 0.00 0.00 0.00 74 1020.5
20260506115746 31 202 2.0 2.0 0.00 0.00 0.00 75 1020.2
20260506115244 30 179 0.0 0.0 0.00 0.00 0.00 76 1020.2
20260506114741 31 182 0.0 0.0 0.00 0.00 0.00 75 1020.2
20260506114239 31 173 0.0 1.0 0.00 0.00 0.00 75 1020.2
20260506113737 30 187 0.0 0.0 0.00 0.00 0.00 78 1020.0
20260506113234 29 187 0.0 0.0 0.00 0.00 0.00 80 1020.0
20260506112730 29 186 0.0 0.0 0.00 0.00 0.00 80 1019.9
20260506112228 29 186 0.0 0.0 0.00 0.00 0.00 80 1019.8
20260506111725 29 186 0.0 0.0 0.00 0.00 0.00 78 1019.6
20260506111224 29 186 0.0 0.0 0.00 0.00 0.00 78 1019.9
20260506110720 29 186 0.0 0.0 0.00 0.00 0.00 78 1019.8
20260506110218 29 186 0.0 0.0 0.00 0.00 0.00 77 1019.4
20260506105714 30 186 0.0 0.0 0.00 0.00 0.00 76 1019.5
20260506105211 30 187 0.0 0.0 0.00 0.00 0.00 76 1019.2
20260506104709 30 187 0.0 0.0 0.00 0.00 0.00 76 1019.4
20260506104207 30 187 0.0 0.0 0.00 0.00 0.00 76 1019.4
20260506103703 30 187 0.0 0.0 0.00 0.00 0.00 76 1019.4
20260506103200 30 187 0.0 0.0 0.00 0.00 0.00 76 1019.5
20260506102658 30 186 0.0 0.0 0.00 0.00 0.00 75 1019.5
20260506102156 30 186 0.0 0.0 0.00 0.00 0.00 73 1019.3
20260506101652 31 186 0.0 0.0 0.00 0.00 0.00 73 1019.3
20260506101149 31 187 0.0 0.0 0.00 0.00 0.00 72 1019.3
20260506100648 31 188 0.0 0.0 0.00 0.00 0.00 70 1019.3
20260506100145 31 190 0.0 0.0 0.00 0.00 0.00 70 1019.2
20260506095644 31 202 0.0 0.0 0.00 0.00 0.00 70 1019.3
20260506095140 32 188 0.0 0.0 0.00 0.00 0.00 69 1019.0
20260506094637 32 188 0.0 1.0 0.00 0.00 0.00 70 1019.0
20260506094135 31 190 1.0 1.0 0.00 0.00 0.00 70 1019.3
20260506093634 32 191 1.0 1.0 0.00 0.00 0.00 69 1019.2
20260506093130 33 203 1.0 2.0 0.00 0.00 0.00 68 1018.9
20260506092628 32 201 1.0 2.0 0.00 0.00 0.00 68 1018.9
20260506092125 33 197 1.0 2.0 0.00 0.00 0.00 67 1019.0
20260506091623 33 213 2.0 2.0 0.00 0.00 0.00 68 1018.9
20260506091120 33 199 1.0 2.0 0.00 0.00 0.00 68 1018.8
20260506090618 33 202 2.0 2.0 0.00 0.00 0.00 68 1018.8
20260506090114 33 206 1.0 1.0 0.00 0.00 0.00 68 1018.9
20260506085611 33 208 1.0 2.0 0.00 0.00 0.00 66 1019.0
20260506085108 34 216 2.0 2.0 0.00 0.00 0.00 66 1018.9
20260506084604 33 207 1.0 2.0 0.00 0.00 0.00 66 1018.8
20260506084101 34 189 1.0 1.0 0.00 0.00 0.00 65 1018.8
20260506083558 35 190 0.0 1.0 0.00 0.00 0.00 63 1018.9
20260506083055 35 208 1.0 3.0 0.00 0.00 0.00 62 1018.9
20260506082552 35 197 1.0 2.0 0.00 0.00 0.00 63 1018.8
20260506082047 35 185 1.0 2.0 0.00 0.00 0.00 64 1018.9
20260506081546 36 192 1.0 1.0 0.00 0.00 0.00 63 1018.8
20260506081043 37 184 1.0 2.0 0.00 0.00 0.00 60 1018.9
20260506080541 37 207 1.0 2.0 0.00 0.00 0.00 59 1018.9
20260506073524 38 191 2.0 2.0 0.00 0.00 0.00 57 1018.7
20260506073021 38 196 2.0 2.0 0.00 0.00 0.00 57 1018.8
20260506072518 38 189 1.0 2.0 0.00 0.00 0.00 57 1019.0
20260506072016 38 274 2.0 3.0 0.00 0.00 0.00 57 1018.7
20260506071514 38 194 1.0 2.0 0.00 0.00 0.00 58 1018.8
20260506071010 38 183 0.0 1.0 0.00 0.00 0.00 58 1018.8
20260506070508 38 214 0.0 1.0 0.00 0.00 0.00 58 1018.6
20260506062445 39 186 1.0 2.0 0.00 0.00 0.00 54 1018.5
20260506061941 39 190 1.0 2.0 0.00 0.00 0.00 53 1018.4
20260506061437 39 213 2.0 2.0 0.00 0.00 0.00 53 1018.5
20260506060936 39 188 1.0 1.0 0.00 0.00 0.00 55 1018.5
20260506060434 39 197 1.0 1.0 0.00 0.00 0.00 56 1018.4
20260506051405 40 202 1.0 2.0 0.00 0.00 0.00 51 1018.0
20260506050902 40 205 1.0 1.0 0.00 0.00 0.00 52 1017.9
20260506050400 40 245 1.0 2.0 0.00 0.00 0.00 52 1017.7
20260506044850 41 226 1.0 2.0 0.00 0.00 0.00 49 1017.8
20260506044348 42 183 2.0 2.0 0.00 0.00 0.00 49 1017.9
20260506043845 42 243 1.0 3.0 0.00 0.00 0.00 49 1017.9
20260506043342 42 219 1.0 3.0 0.00 0.00 0.00 48 1017.7
20260506042841 42 290 2.0 3.0 0.00 0.00 0.00 48 1017.6
20260506042339 42 226 2.0 3.0 0.00 0.00 0.00 48 1017.7
20260506041838 42 225 2.0 3.0 0.00 0.00 0.00 47 1017.7
20260506041334 43 222 2.0 2.0 0.00 0.00 0.00 46 1017.7
20260506040831 43 287 2.0 3.0 0.00 0.00 0.00 46 1017.7
20260506040329 43 263 2.0 3.0 0.00 0.00 0.00 45 1017.7
20260506035825 43 217 2.0 3.0 0.00 0.00 0.00 45 1017.6
20260506035323 43 292 2.0 3.0 0.00 0.00 0.00 46 1017.7
20260506034820 44 209 2.0 3.0 0.00 0.00 0.00 45 1017.7
20260506034317 44 251 3.0 4.0 0.00 0.00 0.00 44 1017.7
20260506033814 44 222 4.0 4.0 0.00 0.00 0.00 43 1017.6
20260506033310 44 229 2.0 6.0 0.00 0.00 0.00 43 1017.5